Weather observations for the past three days for
Eastman, Heart of Georgia Regional Airport
Imperial (Metric)
Date Time (edt) Wind (mph) Vis. (mi.) Weather Sky Cond. Temperature (ºF) Relative Humidity Wind Chill (°F) Heat Index (°F) Pressure Precipitation (in)
Air Dwpt 6 hour altimeter (in) sea level (mb) 1 hr 3 hr 6 hr
Max. Min.
17 22:35 S 3 10.00 Fair CLR 71.6 71.6 100% 30.09 0.0
17 22:15 S 5 10.00 Fair CLR 71.6 71.6 100% 30.11 0.0
17 21:55 Calm 10.00 Light Drizzle SCT110 71.6 71.6 100% 30.12 0.0
17 21:35 SW 6 10.00 Light Rain SCT095 SCT110 73.4 69.8 89% 30.13 0.0
17 21:15 S 10 10.00 Partly Cloudy SCT070 SCT120 73.4 69.8 89% 30.12 0.0
17 20:55 S 7 10.00 Mostly Cloudy BKN120 73.4 69.8 89% 30.12 0.0
17 20:35 NW 3 10.00 Light Rain SCT050 SCT070 BKN110 73.4 69.8 89% 30.09 0.0
17 20:15 W 8 10.00 Rain SCT060 BKN100 75.2 69.8 83% 75 30.09 0.0
17 19:55 NW 9 10.00 Partly Cloudy SCT090 77 69.8 79% 79 30.09 0.0
17 19:35 NW 15 G 24 10.00 Partly Cloudy SCT050 SCT080 SCT090 77 71.6 83% 78 30.07 0.0
17 19:15 W 12 G 18 10.00 Thunderstorm Light Drizzle in Vicinity BKN090 OVC110 78.8 71.6 79% 82 30.07 0.0
17 18:55 W 5 10.00 Partly Cloudy SCT110 80.6 71.6 74% 85 30.05 0.0
17 18:35 Calm 10.00 Fair CLR 80.6 71.6 74% 85 30.06 0.0
17 18:15 Calm 10.00 Fair CLR 80.6 73.4 79% 85 30.05 0.0
17 17:55 SW 3 10.00 Partly Cloudy SCT032 SCT038 SCT050 80.6 73.4 79% 85 30.02 0.0
17 17:35 Calm 10.00 Fair CLR 80.6 71.6 74% 85 30.01 0.0
17 17:15 SW 6 10.00 Fair CLR 80.6 71.6 74% 85 30.01 0.0
17 16:55 S 5 10.00 Thunderstorm in Vicinity CLR 80.6 73.4 79% 85 30.02 0.0
17 16:35 S 7 10.00 Thunderstorm in Vicinity CLR 84.2 69.8 62% 88 30.02 0.0
17 16:15 Calm 10.00 Thunderstorm in Vicinity SCT044 SCT070 SCT085 80.6 71.6 74% 85 30.03 0.0
17 15:55 Calm 10.00 Thunderstorm in Vicinity SCT070 SCT090 BKN120 78.8 71.6 79% 82 30.04 0.0
17 15:35 SW 7 G 18 10.00 Thunderstorm SCT031 SCT042 SCT049 80.6 69.8 70% 84 30.04 0.0
17 15:15 W 13 G 22 10.00 Thunderstorm in Vicinity BKN044 BKN060 BKN075 89.6 73.4 59% 98 30.03 0.0
17 14:55 SW 7 10.00 Thunderstorm in Vicinity SCT044 SCT050 BKN060 89.6 71.6 55% 96 30.03 0.0
17 14:35 SW 5 10.00 Mostly Cloudy SCT040 BKN050 BKN060 89.6 71.6 55% 96 30.04 0.0
17 14:15 SW 5 10.00 Mostly Cloudy BKN040 BKN050 89.6 73.4 59% 98 30.05 0.0
17 13:55 W 6 10.00 Mostly Cloudy SCT036 BKN044 89.6 73.4 59% 98 30.06 0.0
17 13:35 SW 3 10.00 Mostly Cloudy SCT034 BKN046 BKN055 87.8 73.4 62% 96 30.07 0.0
17 13:15 SW 8 10.00 Partly Cloudy SCT034 SCT044 87.8 73.4 62% 96 30.07 0.0
17 12:55 W 9 10.00 Mostly Cloudy SCT030 BKN038 87.8 75.2 66% 98 30.07 0.0
17 12:35 W 7 10.00 Partly Cloudy SCT028 SCT038 87.8 75.2 66% 98 30.07 0.0
17 12:15 W 5 10.00 Partly Cloudy SCT025 SCT030 SCT038 86 75.2 70% 95 30.08 0.0
17 11:55 NW 7 10.00 Mostly Cloudy BKN025 BKN030 BKN040 86 75.2 70% 95 30.08 0.0
17 11:35 W 8 10.00 Mostly Cloudy BKN023 BKN030 BKN046 84.2 75.2 74% 92 30.09 0.0
17 11:15 W 6 10.00 Partly Cloudy SCT021 84.2 77 79% 94 30.1 0.0
17 10:55 W 6 10.00 Partly Cloudy SCT019 84.2 77 79% 94 30.1 0.0
17 10:35 NW 7 10.00 Partly Cloudy SCT017 82.4 77 84% 91 30.1 0.0
17 10:15 W 7 10.00 Partly Cloudy SCT016 82.4 77 84% 91 30.11 0.0
17 09:55 SW 7 10.00 Partly Cloudy SCT014 80.6 75.2 84% 86 30.11 0.0
17 09:35 W 6 10.00 Partly Cloudy SCT014 78.8 75.2 89% 82 30.12 0.0
17 09:15 SW 5 10.00 Partly Cloudy SCT014 78.8 75.2 89% 82 30.12 0.0
17 08:55 W 3 10.00 Fair CLR 78.8 75.2 89% 82 30.12 0.0
17 08:35 W 5 10.00 Fair CLR 77 75.2 94% 78 30.12 0.0
17 08:15 W 5 10.00 Fair CLR 75.2 75.2 100% 73 30.11 0.0
17 07:55 Calm 10.00 Fair CLR 73.4 73.4 100% 30.11 0.0
17 07:35 Calm 7.00 Fair CLR 73.4 73.4 100% 30.1 0.0
17 07:15 Calm 7.00 Partly Cloudy SCT055 71.6 71.6 100% 30.09 0.0
17 06:55 Calm 7.00 Mostly Cloudy BKN055 71.6 71.6 100% 30.09 0.0
17 06:35 Calm 10.00 Partly Cloudy SCT049 71.6 71.6 100% 30.07 0.0
17 06:15 Calm 10.00 Fair CLR 71.6 71.6 100% 30.06 0.0
17 05:35 Calm 10.00 Fair CLR 71.6 71.6 100% 30.04 0.0
17 04:55 Calm 10.00 Fair CLR 71.6 71.6 100% 30.02 0.0
17 04:35 Calm 10.00 Fair CLR 71.6 71.6 100% 30.01 0.0
17 04:15 Calm 10.00 Fair CLR 71.6 71.6 100% 30.02 0.0
17 03:55 Calm 10.00 Fair CLR 71.6 71.6 100% 30.02 0.0
17 03:35 SW 3 10.00 Fair CLR 71.6 71.6 100% 30.02 0.0
17 03:15 Calm 10.00 Fair CLR 69.8 69.8 100% 30.03 0.0
17 02:35 Calm 10.00 Fair CLR 69.8 69.8 100% 30.03 0.0
17 02:15 Calm 10.00 Fair CLR 71.6 69.8 94% 30.04 0.0
17 01:55 S 3 10.00 Fair CLR 71.6 71.6 100% 30.04 0.0
17 01:35 SE 3 10.00 Fair CLR 71.6 71.6 100% 30.04 0.0
17 01:15 Calm 10.00 Fair CLR 71.6 71.6 100% 30.05 0.0
17 00:55 Calm 10.00 Fair CLR 71.6 71.6 100% 30.05 0.0
17 00:35 S 3 10.00 Fair CLR 71.6 71.6 100% 30.05 0.0
17 00:15 Calm 10.00 Fair CLR 71.6 71.6 100% 30.05 0.0
16 23:55 Calm 10.00 Fair CLR 71.6 71.6 100% 30.06 0.0 0.01
16 23:35 Calm 10.00 Fair CLR 71.6 71.6 100% 30.07 0.0 0.01
16 23:15 Calm 10.00 Light Drizzle CLR 71.6 71.6 100% 30.07 0.0 0.01
16 22:55 Calm 10.00 Thunderstorm Light Drizzle in Vicinity SCT110 71.6 71.6 100% 30.02 0.0 0.17
16 22:35 SW 3 7.00 Thunderstorm Light Rain in Vicinity SCT020 BKN090 OVC110 73.4 71.6 94% 30.04 0.0 0.17
16 22:15 W 8 G 24 3.00 Thunderstorm Rain in Vicinity SCT018 BKN028 OVC060 73.4 71.6 94% 30.04 0.0 0.13
16 21:55 NW 15 G 26 10.00 Mostly Cloudy SCT028 SCT033 BKN049 80.6 69.8 70% 84 30.07 0.0
16 21:35 SW 3 10.00 Fair CLR 82.4 73.4 74% 88 30.05 0.0
16 21:15 SW 6 10.00 Fair CLR 82.4 73.4 74% 88 30.05 0.0
16 20:55 SW 5 10.00 Fair CLR 82.4 73.4 74% 88 30.04 0.0
16 20:35 SW 6 10.00 Fair CLR 84.2 73.4 70% 91 30.03 0.0
16 20:15 SW 6 10.00 Fair CLR 86 73.4 66% 93 30.02 0.0
16 19:55 S 6 10.00 Fair CLR 87.8 75.2 66% 98 30.01 0.0
16 19:35 S 6 10.00 Fair CLR 87.8 75.2 66% 98 30.01 0.0
16 19:15 S 3 10.00 Fair CLR 87.8 75.2 66% 98 30.01 0.0
16 18:55 SW 3 10.00 Fair CLR 87.8 77 70% 100 30 0.0
16 18:35 Calm 10.00 Fair CLR 87.8 75.2 66% 98 30 0.0
16 18:15 S 6 10.00 Thunderstorm in Vicinity CLR 86 73.4 66% 93 30 0.0
16 17:55 Calm 10.00 Fair CLR 80.6 73.4 79% 85 30.01 0.0 0.03
16 17:35 SW 7 10.00 Thunderstorm SCT048 SCT060 BKN100 78.8 71.6 79% 82 30.02 0.0 0.03
16 17:15 W 6 G 17 3.00 Light Rain SCT050 BKN075 OVC090 78.8 71.6 79% 82 30.01 0.0 0.02
16 16:55 W 5 10.00 Thunderstorm in Vicinity SCT050 BKN090 86 69.8 59% 91 30.01 0.0
16 16:35 SW 9 G 16 10.00 Partly Cloudy SCT048 93.2 71.6 50% 101 30.01 0.0
16 16:15 SW 7 10.00 Partly Cloudy SCT050 95 71.6 47% 103 29.99 0.0
16 15:55 SW 6 10.00 Partly Cloudy SCT050 SCT070 SCT075 91.4 71.6 52% 99 30 0.0
16 15:35 SW 3 10.00 Partly Cloudy SCT046 SCT080 91.4 71.6 52% 99 30.02 0.0
16 15:15 SW 8 10.00 Partly Cloudy SCT044 SCT055 95 73.4 50% 105 30.02 0.0
16 14:55 SW 6 10.00 Partly Cloudy SCT042 SCT065 89.6 71.6 55% 96 30.03 0.0
16 14:35 SW 7 10.00 Partly Cloudy SCT065 SCT080 93.2 71.6 50% 101 30.04 0.0
16 14:15 SW 6 10.00 Partly Cloudy SCT046 SCT055 SCT065 91.4 71.6 52% 99 30.04 0.0
16 13:55 SW 3 10.00 Mostly Cloudy SCT043 BKN050 BKN060 91.4 71.6 52% 99 30.05 0.0
16 13:35 SW 7 10.00 Mostly Cloudy SCT043 SCT049 BKN060 91.4 71.6 52% 99 30.06 0.0
16 13:15 SW 7 10.00 Partly Cloudy SCT041 89.6 71.6 55% 96 30.07 0.0
16 12:55 SW 7 10.00 Fair CLR 89.6 71.6 55% 96 30.07 0.0
16 12:35 SW 3 10.00 Fair CLR 87.8 71.6 59% 94 30.08 0.0
16 12:15 S 9 10.00 Fair CLR 87.8 71.6 59% 94 30.08 0.0
16 11:55 SW 5 10.00 Fair CLR 87.8 71.6 59% 94 30.09 0.0
16 11:35 SW 7 10.00 Fair CLR 86 73.4 66% 93 30.09 0.0
16 11:15 W 8 10.00 Fair CLR 86 71.6 62% 92 30.09 0.0
16 10:55 W 5 10.00 Fair CLR 84.2 71.6 66% 90 30.09 0.0
16 10:35 W 7 10.00 Fair CLR 84.2 73.4 70% 91 30.09 0.0
16 10:15 NW 6 10.00 Fair CLR 82.4 71.6 70% 87 30.09 0.0
16 09:55 W 7 10.00 Fair CLR 80.6 71.6 74% 85 30.1 0.0
16 09:35 W 5 10.00 Fair CLR 80.6 69.8 70% 84 30.1 0.0
16 09:15 SW 5 10.00 Fair CLR 78.8 69.8 74% 81 30.1 0.0
16 08:55 Calm 10.00 Fair CLR 77 71.6 83% 78 30.1 0.0
16 08:35 S 3 10.00 Fair CLR 73.4 71.6 94% 30.1 0.0
16 08:15 Calm 10.00 Partly Cloudy SCT060 SCT070 71.6 71.6 100% 30.1 0.0
16 07:55 SW 3 10.00 Mostly Cloudy BKN070 71.6 71.6 100% 30.09 0.0
16 07:35 Calm 10.00 Partly Cloudy SCT070 71.6 69.8 94% 30.09 0.0
16 07:15 Calm 10.00 Fair CLR 69.8 69.8 100% 30.08 0.0
16 06:55 Calm 10.00 Partly Cloudy SCT070 69.8 69.8 100% 30.08 0.0
16 06:35 S 5 10.00 Mostly Cloudy BKN070 69.8 69.8 100% 30.07 0.0
16 06:15 Calm 10.00 Partly Cloudy SCT070 69.8 69.8 100% 30.06 0.0
16 05:55 Calm 10.00 Fair CLR 69.8 69.8 100% 30.06 0.0
16 05:35 Calm 10.00 Partly Cloudy SCT060 69.8 69.8 100% 30.06 0.0
16 05:15 Calm 10.00 Mostly Cloudy BKN060 69.8 69.8 100% 30.06 0.0
16 04:55 Calm 10.00 Mostly Cloudy BKN060 69.8 69.8 100% 30.05 0.0
16 04:35 Calm 10.00 Fair CLR 69.8 69.8 100% 30.05 0.0
16 04:15 Calm 10.00 Fair CLR 71.6 69.8 94% 30.04 0.0
16 03:55 NW 3 10.00 Fair CLR 71.6 69.8 94% 30.04 0.0
16 03:35 Calm 10.00 Fair CLR 71.6 69.8 94% 30.02 0.0
16 03:15 Calm 10.00 Fair CLR 71.6 69.8 94% 30.02 0.0
16 02:55 Calm 10.00 Fair CLR 73.4 71.6 94% 30.03 0.0
16 02:35 Calm 10.00 Fair CLR 73.4 71.6 94% 30.02 0.0
16 02:15 Calm 10.00 Fair CLR 75.2 71.6 89% 75 30.03 0.0
16 01:55 SW 5 10.00 Fair CLR 75.2 71.6 89% 75 30.04 0.0
16 01:35 Calm 10.00 Fair CLR 77 71.6 83% 78 30.05 0.0
16 01:15 W 3 10.00 Fair CLR 77 71.6 83% 78 30.05 0.0
16 00:55 Calm 10.00 Fair CLR 77 71.6 83% 78 30.06 0.0
16 00:35 Calm 10.00 Fair CLR 77 73.4 89% 78 30.06 0.0
16 00:15 Calm 10.00 Fair CLR 77 71.6 83% 78 30.06 0.0
15 23:55 Calm 10.00 Fair CLR 77 71.6 83% 78 30.06 0.0
15 23:35 SW 3 10.00 Fair CLR 77 71.6 83% 78 30.06 0.0
15 23:15 Calm 10.00 Fair CLR 78.8 71.6 79% 82 30.06 0.0
15 22:55 Calm 0.00 NULL NULL 78.8 71.6 79% 82 30.06 0.0
15 22:35 S 3 10.00 Fair CLR 78.8 71.6 79% 82 30.06 0.0
15 22:15 S 3 10.00 Fair CLR 78.8 71.6 79% 82 30.06 0.0
15 21:55 S 5 10.00 Fair CLR 78.8 71.6 79% 82 30.05 0.0
15 21:35 Calm 10.00 Fair CLR 80.6 71.6 74% 85 30.05 0.0
15 21:15 Calm 10.00 Fair CLR 80.6 71.6 74% 85 30.03 0.0
15 20:55 SW 5 10.00 Fair CLR 80.6 71.6 74% 85 30.03 0.0
15 20:35 Calm 10.00 Fair CLR 82.4 71.6 70% 87 30.04 0.0
15 20:15 SW 6 10.00 Fair CLR 82.4 71.6 70% 87 30.05 0.0
15 19:55 SW 5 10.00 Partly Cloudy SCT046 SCT060 SCT065 86 71.6 62% 92 30.03 0.0
15 19:35 S 6 10.00 Partly Cloudy SCT046 86 71.6 62% 92 30.03 0.0
15 19:15 SE 9 10.00 Fair CLR 87.8 73.4 62% 96 30.02 0.0
15 18:55 S 6 10.00 Fair CLR 87.8 71.6 59% 94 30 0.0
15 18:35 S 8 10.00 Fair CLR 89.6 71.6 55% 96 30.01 0.0
15 18:15 S 9 10.00 Fair CLR 91.4 69.8 49% 97 30 0.0
15 17:55 SW 5 10.00 Fair CLR 89.6 69.8 52% 95 29.99 0.0
15 17:35 SW 6 10.00 Fair CLR 89.6 71.6 55% 96 29.99 0.0
15 17:15 SW 9 10.00 Thunderstorm in Vicinity SCT060 SCT120 87.8 71.6 59% 94 30 0.0
15 16:55 SW 5 10.00 Partly Cloudy SCT060 SCT120 89.6 69.8 52% 95 30 0.0
15 16:35 SE 3 10.00 Partly Cloudy SCT120 89.6 71.6 55% 96 30 0.0
15 16:15 SE 3 10.00 Partly Cloudy SCT120 87.8 71.6 59% 94 30.01 0.0
15 15:55 SE 7 10.00 Partly Cloudy SCT075 SCT090 SCT110 89.6 73.4 59% 98 30 0.0
15 15:35 SE 8 10.00 Thunderstorm Light Rain in Vicinity SCT030 SCT055 BKN070 87.8 73.4 62% 96 30.02 0.0
15 15:15 NE 5 7.00 Thunderstorm Light Rain SCT030 BKN075 OVC095 80.6 73.4 79% 85 30.04 0.0
15 14:55 N 7 10.00 Thunderstorm SCT065 BKN075 OVC085 82.4 68 62% 85 30.05 0.0
15 14:35 N 9 10.00 Thunderstorm SCT055 BKN075 OVC100 89.6 69.8 52% 95 30.05 0.0
15 14:15 E 7 10.00 Thunderstorm in Vicinity SCT055 BKN070 OVC100 91.4 71.6 52% 99 30.04 0.0
15 13:55 NE 5 10.00 Mostly Cloudy BKN055 BKN070 BKN090 93.2 71.6 50% 101 30.05 0.0
15 13:35 W 3 10.00 Partly Cloudy SCT055 SCT070 SCT090 95 69.8 44% 101 30.05 0.0
15 13:15 W 5 10.00 Fair CLR 95 71.6 47% 103 30.06 0.0
15 12:55 W 6 10.00 Fair CLR 95 73.4 50% 105 30.08 0.0
15 12:35 NW 5 10.00 Fair CLR 91.4 71.6 52% 99 30.09 0.0
15 12:15 SW 6 10.00 Fair CLR 91.4 71.6 52% 99 30.09 0.0
15 11:55 Calm 10.00 Fair CLR 91.4 73.4 56% 100 30.1 0.0
15 11:35 NW 6 10.00 Fair CLR 89.6 73.4 59% 98 30.1 0.0
15 11:15 W 6 10.00 Fair CLR 89.6 73.4 59% 98 30.11 0.0
15 10:55 W 3 10.00 Fair CLR 87.8 75.2 66% 98 30.12 0.0
15 10:35 W 5 10.00 Fair CLR 87.8 75.2 66% 98 30.12 0.0
15 10:15 W 6 10.00 Fair CLR 86 75.2 70% 95 30.12 0.0
15 09:55 W 5 10.00 Fair CLR 86 77 75% 97 30.12 0.0
15 09:35 W 6 10.00 Fair CLR 84.2 75.2 74% 92 30.12 0.0
15 09:15 W 5 10.00 Fair CLR 82.4 77 84% 91 30.12 0.0
15 08:55 W 3 10.00 Fair CLR 80.6 77 89% 87 30.12 0.0
15 08:35 W 3 10.00 Fair CLR 80.6 77 89% 87 30.11 0.0
15 08:15 Calm 10.00 Fair CLR 78.8 75.2 89% 82 30.11 0.0
15 07:55 Calm 10.00 Fair CLR 77 75.2 94% 78 30.1 0.0
15 07:35 Calm 10.00 Fair CLR 75.2 73.4 94% 74 30.1 0.0
15 07:15 Calm 10.00 Fair CLR 73.4 73.4 100% 30.1 0.0
15 06:55 Calm 10.00 Fair CLR 73.4 73.4 100% 30.09 0.0
15 06:35 Calm 10.00 Fair CLR 73.4 73.4 100% 30.08 0.0
15 06:15 Calm 10.00 Fair CLR 73.4 73.4 100% 30.07 0.0
15 05:55 Calm 10.00 Fair CLR 73.4 73.4 100% 30.07 0.0
15 05:35 Calm 10.00 Fair CLR 75.2 73.4 94% 74 30.07 0.0
15 05:15 Calm 10.00 Fair CLR 75.2 73.4 94% 74 30.06 0.0
15 04:55 S 3 10.00 Fair CLR 75.2 73.4 94% 74 30.06 0.0
15 04:35 Calm 10.00 Fair CLR 77 73.4 89% 78 30.06 0.0
15 04:15 Calm 10.00 Fair CLR 77 73.4 89% 78 30.06 0.0
15 03:55 Calm 10.00 Fair CLR 77 73.4 89% 78 30.06 0.0
15 03:35 Calm 10.00 Fair CLR 77 73.4 89% 78 30.06 0.0
15 03:15 SW 3 10.00 Fair CLR 77 73.4 89% 78 30.07 0.0
15 02:55 Calm 10.00 Fair CLR 77 71.6 83% 78 30.07 0.0
15 02:35 SW 3 10.00 Fair CLR 78.8 71.6 79% 82 30.08 0.0
15 02:15 Calm 10.00 Fair CLR 78.8 71.6 79% 82 30.09 0.0
15 01:55 Calm 10.00 Fair CLR 78.8 71.6 79% 82 30.1 0.0
15 01:35 S 3 10.00 Fair CLR 78.8 71.6 79% 82 30.1 0.0
15 01:15 S 3 10.00 Fair CLR 78.8 71.6 79% 82 30.11 0.0
15 00:55 S 3 10.00 Fair CLR 78.8 71.6 79% 82 30.11 0.0
15 00:35 S 6 10.00 Fair CLR 80.6 71.6 74% 85 30.11 0.0
15 00:15 S 6 10.00 Fair CLR 78.8 71.6 79% 82 30.11 0.0
14 23:55 Calm 10.00 Fair CLR 77 73.4 89% 78 30.1 0.0
14 23:35 Calm 10.00 Fair CLR 77 73.4 89% 78 30.1 0.0
14 23:15 Calm 10.00 Fair CLR 77 73.4 89% 78 30.1 0.0
14 22:55 Calm 10.00 Fair CLR 78.8 71.6 79% 82 30.1 0.0
Date Time (edt) Wind (mph) Vis. (mi.) Weather Sky Cond. Air Dwpt Max. Min. Relative Humidity Wind Chill (°F) Heat Index (°F) altimeter (in) sea level (mb) 1 hr 3 hr 6 hr
6 hour
Temperature (ºF) Pressure Precipitation (in)